{"data":{"norad_id":68982,"epoch":"2026-05-25T03:23:03.887808Z","epoch_age_seconds":62530,"freshness":"FRESH","line1":"1 68982U 26100C   26145.14101722  .00001355  00000+0  14195-3 0  9994","line2":"2 68982  97.7360  43.0042 0002626 214.8735 145.2312 14.91183487  3261","mean_motion":14.91183487,"eccentricity":0.0002626,"inclination_deg":97.736,"raan_deg":43.0042,"arg_perigee_deg":214.8735,"mean_anomaly_deg":145.2312,"bstar":0.00014195,"rev_number":326,"period_min":96.567592959135,"perigee_km":592.41316075718,"apogee_km":596.07505531512,"semimajor_km":6972.3811080361,"source":"CELESTRAK","updated_at":"2026-05-25T13:38:08.807012Z"}}